When you browse on this site, cookies collect data to enhance your experience and personalize the content and advertising you see.
Visit our Privacy Policy to learn more. By continuing to use the site, you agree to this use of cookies and data.
  • In Hungary
  • List of Countries
  • For 7 days
  • Water Temperature
  • Satellite Maps
  • Weather Map
  • News
  • Weather Widgets
  • user-avatar
    Login

    Hourly Weather Viktorynivka

    Today, 16 July, Tuesday

    Time Temperature Precipitation Wind Pressure Humidity
    00:00 +16°C° 0.1 mm 1 mps 743 mmHg 92%
    01:00 +16°C° 0.1 mm 1 mps 743 mmHg 91%
    02:00 +16°C° 0 mm 2 mps 743 mmHg 90%
    03:00 +16°C° 0.2 mm 2 mps 742 mmHg 90%
    04:00 +16°C° 0.2 mm 2 mps 742 mmHg 91%
    05:00 +16°C° 0.2 mm 1 mps 742 mmHg 92%
    06:00 +17°C° 0.1 mm 2 mps 742 mmHg 89%
    07:00 +18°C° 0.1 mm 2 mps 742 mmHg 86%
    08:00 +19°C° 0 mm 2 mps 743 mmHg 84%
    09:00 +20°C° 0.6 mm 2 mps 742 mmHg 79%
    10:00 +21°C° 0.6 mm 2 mps 742 mmHg 74%
    11:00 +22°C° 0.6 mm 3 mps 742 mmHg 69%
    12:00 +24°C° 0.3 mm 3 mps 742 mmHg 67%
    13:00 +24°C° 0.3 mm 2 mps 742 mmHg 65%
    14:00 +24°C° 0 mm 2 mps 742 mmHg 61%
    15:00 +24°C° 1.2 mm 2 mps 742 mmHg 65%
    16:00 +23°C° 1.2 mm 2 mps 742 mmHg 69%
    17:00 +23°C° 1.2 mm 2 mps 742 mmHg 72%
    18:00 +20°C° 0.3 mm 2 mps 742 mmHg 77%
    19:00 +19°C° 0.3 mm 2 mps 742 mmHg 81%
    20:00 +17°C° 0.3 mm 2 mps 742 mmHg 85%
    21:00 +17°C° 0 mm 2 mps 742 mmHg 87%
    22:00 +16°C° 0 mm 2 mps 741 mmHg 88%
    23:00 +15°C° 0 mm 2 mps 741 mmHg 89%

    Tomorrow, 17 July, Wednesday

    Time Temperature Precipitation Wind Pressure Humidity
    00:00 +15°C° 0 mm 2 mps 741 mmHg 90%
    01:00 +15°C° 0 mm 1 mps 741 mmHg 90%
    02:00 +14°C° 0 mm 1 mps 741 mmHg 90%
    03:00 +14°C° 0 mm 1 mps 741 mmHg 90%
    04:00 +14°C° 0 mm 1 mps 741 mmHg 90%
    05:00 +15°C° 0 mm 1 mps 741 mmHg 90%
    06:00 +16°C° 0 mm 2 mps 741 mmHg 85%
    07:00 +18°C° 0 mm 2 mps 741 mmHg 80%
    08:00 +20°C° 0 mm 2 mps 741 mmHg 74%
    09:00 +20°C° 0.5 mm 3 mps 741 mmHg 72%
    10:00 +21°C° 0.5 mm 4 mps 741 mmHg 69%
    11:00 +22°C° 0.5 mm 4 mps 741 mmHg 67%
    12:00 +22°C° 0.2 mm 5 mps 741 mmHg 67%
    13:00 +22°C° 0.2 mm 5 mps 741 mmHg 66%
    14:00 +22°C° 0.2 mm 5 mps 741 mmHg 66%
    15:00 +21°C° 0.1 mm 5 mps 741 mmHg 66%
    16:00 +21°C° 0.1 mm 4 mps 741 mmHg 66%
    17:00 +21°C° 0.1 mm 4 mps 741 mmHg 67%
    18:00 +19°C° 0.1 mm 3 mps 741 mmHg 73%
    19:00 +18°C° 0.1 mm 2 mps 741 mmHg 79%
    20:00 +16°C° 0.1 mm 2 mps 741 mmHg 85%
    21:00 +16°C° 0.2 mm 2 mps 741 mmHg 87%
    22:00 +15°C° 0.2 mm 2 mps 741 mmHg 88%
    23:00 +15°C° 0.2 mm 2 mps 741 mmHg 90%

    Day after tomorrow, 18 July, Thursday

    Time Temperature Precipitation Wind Pressure Humidity
    00:00 +14°C° 0 mm 2 mps 741 mmHg 91%
    01:00 +13°C° 0 mm 3 mps 741 mmHg 93%
    02:00 +12°C° 0 mm 3 mps 741 mmHg 94%
    03:00 +12°C° 0 mm 3 mps 741 mmHg 94%
    04:00 +12°C° 0 mm 2 mps 741 mmHg 94%
    05:00 +12°C° 0 mm 2 mps 741 mmHg 94%
    06:00 +13°C° 0 mm 3 mps 741 mmHg 89%
    07:00 +14°C° 0 mm 3 mps 741 mmHg 84%
    08:00 +17°C° 0 mm 4 mps 742 mmHg 79%
    09:00 +18°C° 0.1 mm 4 mps 742 mmHg 75%
    10:00 +19°C° 0.1 mm 5 mps 742 mmHg 71%
    11:00 +20°C° 0.1 mm 5 mps 742 mmHg 68%
    12:00 +21°C° 0.3 mm 5 mps 742 mmHg 67%
    13:00 +21°C° 0.3 mm 5 mps 742 mmHg 65%
    14:00 +21°C° 0.3 mm 6 mps 742 mmHg 64%
    15:00 +21°C° 0.3 mm 5 mps 742 mmHg 68%
    16:00 +21°C° 0.3 mm 5 mps 742 mmHg 71%
    17:00 +20°C° 0.3 mm 5 mps 743 mmHg 74%
    18:00 +19°C° 0.1 mm 4 mps 743 mmHg 80%
    19:00 +17°C° 0.1 mm 4 mps 743 mmHg 86%
    20:00 +16°C° 0.1 mm 3 mps 743 mmHg 91%
    21:00 +14°C° 0 mm 3 mps 743 mmHg 92%
    22:00 +14°C° 0 mm 3 mps 744 mmHg 94%
    23:00 +13°C° 0 mm 3 mps 744 mmHg 95%

    19 July, Friday

    Time Temperature Precipitation Wind Pressure Humidity
    00:00 +13°C° 0 mm 3 mps 744 mmHg 95%
    01:00 +13°C° 0 mm 3 mps 744 mmHg 95%
    02:00 +13°C° 0 mm 3 mps 744 mmHg 96%
    03:00 +13°C° 0 mm 3 mps 744 mmHg 96%
    04:00 +13°C° 0 mm 3 mps 744 mmHg 97%
    05:00 +13°C° 0 mm 3 mps 744 mmHg 97%
    06:00 +14°C° 0 mm 3 mps 745 mmHg 93%
    07:00 +17°C° 0 mm 4 mps 745 mmHg 90%
    08:00 +18°C° 0 mm 4 mps 745 mmHg 86%
    09:00 +19°C° 0 mm 4 mps 745 mmHg 82%
    10:00 +20°C° 0 mm 4 mps 746 mmHg 77%
    11:00 +21°C° 0 mm 4 mps 746 mmHg 72%
    12:00 +22°C° 0.1 mm 5 mps 746 mmHg 68%
    13:00 +23°C° 0.1 mm 5 mps 746 mmHg 64%
    14:00 +23°C° 0.1 mm 6 mps 746 mmHg 60%
    15:00 +23°C° 0.1 mm 5 mps 746 mmHg 62%
    16:00 +23°C° 0.1 mm 4 mps 746 mmHg 64%
    17:00 +23°C° 0.1 mm 4 mps 746 mmHg 66%
    18:00 +21°C° 0 mm 3 mps 747 mmHg 72%
    19:00 +19°C° 0 mm 2 mps 747 mmHg 77%
    20:00 +18°C° 0 mm 2 mps 747 mmHg 82%
    21:00 +17°C° 0 mm 2 mps 747 mmHg 83%
    22:00 +17°C° 0 mm 2 mps 747 mmHg 83%
    23:00 +16°C° 0 mm 2 mps 748 mmHg 83%

    20 July, Saturday

    Time Temperature Precipitation Wind Pressure Humidity
    00:00 +16°C° 0 mm 2 mps 748 mmHg 84%
    01:00 +15°C° 0 mm 2 mps 748 mmHg 86%
    02:00 +15°C° 0 mm 2 mps 748 mmHg 87%
    03:00 +15°C° 0 mm 2 mps 748 mmHg 88%
    04:00 +15°C° 0 mm 2 mps 748 mmHg 89%
    05:00 +15°C° 0 mm 2 mps 748 mmHg 89%
    06:00 +17°C° 0 mm 2 mps 748 mmHg 84%
    07:00 +19°C° 0 mm 3 mps 749 mmHg 80%
    08:00 +21°C° 0 mm 3 mps 749 mmHg 75%
    09:00 +22°C° 0.1 mm 3 mps 749 mmHg 70%
    10:00 +23°C° 0.1 mm 4 mps 749 mmHg 64%
    11:00 +25°C° 0.1 mm 4 mps 749 mmHg 59%
    12:00 +26°C° 0.1 mm 4 mps 749 mmHg 58%
    13:00 +26°C° 0.1 mm 4 mps 749 mmHg 57%
    14:00 +26°C° 0.1 mm 4 mps 749 mmHg 55%
    15:00 +26°C° 0.1 mm 3 mps 749 mmHg 59%
    16:00 +26°C° 0.1 mm 3 mps 749 mmHg 62%
    17:00 +25°C° 0.1 mm 3 mps 749 mmHg 66%
    18:00 +24°C° 0 mm 2 mps 749 mmHg 69%
    19:00 +21°C° 0 mm 2 mps 749 mmHg 72%
    20:00 +20°C° 0 mm 1 mps 749 mmHg 75%
    21:00 +20°C° 0 mm 1 mps 749 mmHg 77%
    22:00 +19°C° 0 mm 1 mps 750 mmHg 80%
    23:00 +18°C° 0 mm 1 mps 750 mmHg 82%

    21 July, Sunday

    Time Temperature Precipitation Wind Pressure Humidity
    00:00 +18°C° 0 mm 1 mps 750 mmHg 84%
    01:00 +16°C° 0 mm 1 mps 750 mmHg 86%
    02:00 +16°C° 0 mm 1 mps 750 mmHg 88%
    03:00 +16°C° 0 mm 1 mps 750 mmHg 88%
    04:00 +16°C° 0 mm 1 mps 750 mmHg 87%
    05:00 +16°C° 0 mm 1 mps 750 mmHg 87%
    06:00 +19°C° 0 mm 1 mps 750 mmHg 81%
    07:00 +21°C° 0 mm 1 mps 750 mmHg 76%
    08:00 +22°C° 0 mm 1 mps 750 mmHg 70%
    09:00 +24°C° 0 mm 2 mps 750 mmHg 65%
    10:00 +25°C° 0 mm 2 mps 751 mmHg 59%
    11:00 +26°C° 0 mm 2 mps 751 mmHg 54%
    12:00 +26°C° 0 mm 3 mps 751 mmHg 53%
    13:00 +26°C° 0 mm 3 mps 751 mmHg 52%
    14:00 +27°C° 0 mm 3 mps 750 mmHg 50%
    15:00 +26°C° 0 mm 3 mps 750 mmHg 54%
    16:00 +26°C° 0 mm 3 mps 750 mmHg 57%
    17:00 +26°C° 0 mm 3 mps 750 mmHg 60%
    18:00 +24°C° 0 mm 3 mps 750 mmHg 65%
    19:00 +21°C° 0 mm 2 mps 750 mmHg 69%
    20:00 +19°C° 0 mm 2 mps 750 mmHg 74%
    21:00 +19°C° 0 mm 2 mps 750 mmHg 76%
    22:00 +18°C° 0 mm 2 mps 750 mmHg 79%
    23:00 +17°C° 0 mm 2 mps 750 mmHg 82%
    Show more